[ hide orbit diagram ]
For accurate long-term ephemerides, please instead use our Horizons system.This orbit viewer was implemented using two-body methods, and hence should not be used for determining accurate long-term trajectories (over several years or decades) or planetary encounter circumstances.
Orbital Elements at Epoch 2459000.5 (2020-May-31.0) TDB
Reference: JPL 12 (heliocentric ecliptic J2000)
Element | Value | Uncertainty (1-sigma) | Units |
e | .2384216335070148 | 6.6015e-08 | |
a | 3.026620726728029 | 3.2794e-08 | au |
q | 2.305008869055344 | 2.1352e-07 | au |
i | 2.817128820259703 | 5.2718e-06 | deg |
node | 74.76489795243941 | 0.00013722 | deg |
peri | 258.0294519693415 | 0.00013761 | deg |
M | 257.7068991617829 | 1.2442e-05 | deg |
tp | 2459546.986291943387 (2021-Nov-28.48629194) | 7.0591e-05 | TDB |
period | 1923.248620752714 5.27 | 3.1258e-05 8.558e-08 | d yr |
n | .1871832877535638 | 3.0423e-09 | deg/d |
Q | 3.748232584400714 | 4.0613e-08 | au |
|
| | Orbit Determination Parameters
Additional Information
|
[ show covariance matrix ]
Physical Parameter Table
Parameter |
Symbol |
Value |
Units |
Sigma |
Reference |
Notes |
absolute magnitude |
H |
15.7 |
|
n/a |
MPO433404 |
|
|
214769 (2006 UA47) Discovered 2006-Oct-16 by Spacewatch at Kitt Peak |
Reference: 20090509/Numbers.arc | Last Updated: 2009-05-11 |
|
[ show close-approach data ]
|